Time,TemperatureF,DewpointF,PressureIn,WindDirection,WindDirectionDegrees,WindSpeedMPH,WindSpeedGustMPH,Humidity,HourlyPrecipIn,Conditions,Clouds,dailyrainin,SoftwareType,DateUTC
2013-01-20 00:05:00,44.8,33.4,29.97,SSW,208,11.0,11.0,64,0.00,,,0.00,Wunderground v.1.15,2013-01-20 05:05:00,
2013-01-20 00:10:00,44.8,32.6,29.97,SW,216,10.0,19.0,62,0.00,,,0.00,Wunderground v.1.15,2013-01-20 05:10:00,
2013-01-20 00:15:00,44.9,33.1,29.96,SW,214,11.0,19.0,63,0.00,,,0.00,Wunderground v.1.15,2013-01-20 05:15:00,
2013-01-20 00:20:00,44.9,32.7,29.96,SW,224,11.0,19.0,62,0.00,,,0.00,Wunderground v.1.15,2013-01-20 05:20:00,
2013-01-20 00:25:00,44.9,33.5,29.96,SW,220,11.0,19.0,64,0.00,,,0.00,Wunderground v.1.15,2013-01-20 05:25:00,
2013-01-20 00:36:00,44.9,32.7,29.96,SSW,211,13.0,15.0,62,0.00,,,0.00,Wunderground v.1.15,2013-01-20 05:36:00,
2013-01-20 00:45:00,45.0,33.2,29.95,SW,223,13.0,22.0,63,0.00,,,0.00,Wunderground v.1.15,2013-01-20 05:45:00,
2013-01-20 00:56:00,44.9,32.7,29.95,SSW,212,12.0,22.0,62,0.00,,,0.00,Wunderground v.1.15,2013-01-20 05:56:00,
2013-01-20 01:05:00,45.1,32.8,29.94,SSW,212,11.0,22.0,62,0.00,,,0.00,Wunderground v.1.15,2013-01-20 06:05:00,
2013-01-20 01:15:00,45.2,32.5,29.93,SW,218,10.0,22.0,61,0.00,,,0.00,Wunderground v.1.15,2013-01-20 06:15:00,
2013-01-20 01:20:00,45.1,32.4,29.93,SSW,207,10.0,22.0,61,0.00,,,0.00,Wunderground v.1.15,2013-01-20 06:20:00,
2013-01-20 01:25:00,45.1,32.4,29.93,SSW,203,10.0,10.0,61,0.00,,,0.00,Wunderground v.1.15,2013-01-20 06:25:00,
2013-01-20 01:35:00,45.1,32.0,29.93,SW,221,10.0,10.0,60,0.00,,,0.00,Wunderground v.1.15,2013-01-20 06:35:00,
2013-01-20 01:40:00,45.2,32.5,29.93,SW,217,10.0,22.0,61,0.00,,,0.00,Wunderground v.1.15,2013-01-20 06:40:00,
2013-01-20 01:50:00,45.2,32.1,29.93,SW,215,12.0,12.0,60,0.00,,,0.00,Wunderground v.1.15,2013-01-20 06:50:00,
2013-01-20 02:01:00,45.2,32.5,29.92,SW,221,10.0,21.0,61,0.00,,,0.00,Wunderground v.1.15,2013-01-20 07:01:00,
2013-01-20 02:10:00,45.2,32.1,29.92,SSW,193,9.0,21.0,60,0.00,,,0.00,Wunderground v.1.15,2013-01-20 07:10:00,
2013-01-20 02:20:00,45.2,32.1,29.91,SSW,198,9.0,9.0,60,0.00,,,0.00,Wunderground v.1.15,2013-01-20 07:20:00,
2013-01-20 02:31:00,45.1,32.4,29.91,SSW,207,9.0,9.0,61,0.00,,,0.00,Wunderground v.1.15,2013-01-20 07:31:00,
2013-01-20 02:40:00,44.9,32.3,29.91,SSW,200,9.0,9.0,61,0.00,,,0.00,Wunderground v.1.15,2013-01-20 07:40:00,
2013-01-20 02:45:00,45.1,32.4,29.91,SW,215,9.0,11.0,61,0.00,,,0.00,Wunderground v.1.15,2013-01-20 07:45:00,
2013-01-20 02:50:00,45.1,32.0,29.91,SSW,196,8.0,8.0,60,0.00,,,0.00,Wunderground v.1.15,2013-01-20 07:50:00,
2013-01-20 02:55:00,45.1,32.0,29.91,SW,220,8.0,20.0,60,0.00,,,0.00,Wunderground v.1.15,2013-01-20 07:55:00,
2013-01-20 03:05:00,45.0,32.3,29.90,SSW,207,9.0,20.0,61,0.00,,,0.00,Wunderground v.1.15,2013-01-20 08:05:00,
2013-01-20 03:10:00,45.1,32.0,29.90,SSW,211,10.0,10.0,60,0.00,,,0.00,Wunderground v.1.15,2013-01-20 08:10:00,
2013-01-20 03:15:00,45.0,31.9,29.90,SSW,202,10.0,21.0,60,0.00,,,0.00,Wunderground v.1.15,2013-01-20 08:15:00,
2013-01-20 03:25:00,44.9,31.8,29.90,SSW,202,11.0,21.0,60,0.00,,,0.00,Wunderground v.1.15,2013-01-20 08:25:00,
2013-01-20 03:30:00,45.0,31.9,29.89,SW,217,12.0,21.0,60,0.00,,,0.00,Wunderground v.1.15,2013-01-20 08:30:00,
2013-01-20 03:40:00,44.9,31.8,29.89,SSW,209,11.0,11.0,60,0.00,,,0.00,Wunderground v.1.15,2013-01-20 08:40:00,
2013-01-20 03:45:00,44.9,32.3,29.88,SW,220,12.0,14.0,61,0.00,,,0.00,Wunderground v.1.15,2013-01-20 08:45:00,
2013-01-20 03:50:00,44.9,31.8,29.88,SW,221,12.0,12.0,60,0.00,,,0.00,Wunderground v.1.15,2013-01-20 08:50:00,
2013-01-20 03:55:00,44.9,32.3,29.88,SSW,208,12.0,21.0,61,0.00,,,0.00,Wunderground v.1.15,2013-01-20 08:55:00,
2013-01-20 04:05:00,44.9,31.8,29.87,SSW,209,11.0,11.0,60,0.00,,,0.00,Wunderground v.1.15,2013-01-20 09:05:00,
2013-01-20 04:10:00,44.8,31.8,29.87,SW,228,11.0,21.0,60,0.00,,,0.00,Wunderground v.1.15,2013-01-20 09:10:00,
2013-01-20 04:20:00,44.7,32.1,29.87,SSW,208,12.0,22.0,61,0.00,,,0.00,Wunderground v.1.15,2013-01-20 09:20:00,
2013-01-20 04:25:00,44.7,32.1,29.87,SW,217,12.0,22.0,61,0.00,,,0.00,Wunderground v.1.15,2013-01-20 09:25:00,
2013-01-20 04:30:00,44.6,32.0,29.87,SW,227,12.0,22.0,61,0.00,,,0.00,Wunderground v.1.15,2013-01-20 09:30:00,
2013-01-20 04:35:00,44.4,31.8,29.87,SW,234,13.0,22.0,61,0.00,,,0.00,Wunderground v.1.15,2013-01-20 09:35:00,
2013-01-20 04:45:00,44.4,32.2,29.86,SW,227,12.0,22.0,62,0.00,,,0.00,Wunderground v.1.15,2013-01-20 09:45:00,
2013-01-20 04:50:00,44.4,32.6,29.86,SW,226,12.0,22.0,63,0.00,,,0.00,Wunderground v.1.15,2013-01-20 09:50:00,
2013-01-20 04:55:00,44.4,32.2,29.86,SW,235,13.0,13.0,62,0.00,,,0.00,Wunderground v.1.15,2013-01-20 09:55:00,
2013-01-20 05:00:00,44.3,32.5,29.85,SW,221,13.0,13.0,63,0.00,,,0.00,Wunderground v.1.15,2013-01-20 10:00:00,
2013-01-20 05:05:00,44.2,32.4,29.85,SW,215,12.0,14.0,63,0.00,,,0.00,Wunderground v.1.15,2013-01-20 10:05:00,
2013-01-20 05:10:00,44.2,32.4,29.85,SW,219,12.0,12.0,63,0.00,,,0.00,Wunderground v.1.15,2013-01-20 10:10:00,
2013-01-20 05:20:00,44.1,32.3,29.85,SW,217,12.0,12.0,63,0.00,,,0.00,Wunderground v.1.15,2013-01-20 10:20:00,
2013-01-20 05:26:00,44.1,32.3,29.85,SW,225,11.0,18.0,63,0.00,,,0.00,Wunderground v.1.15,2013-01-20 10:26:00,
2013-01-20 05:35:00,44.1,32.3,29.84,SW,225,13.0,21.0,63,0.00,,,0.00,Wunderground v.1.15,2013-01-20 10:35:00,
2013-01-20 05:40:00,44.1,32.3,29.84,SW,222,13.0,13.0,63,0.00,,,0.00,Wunderground v.1.15,2013-01-20 10:40:00,
2013-01-20 05:50:00,44.1,32.7,29.84,SSW,209,13.0,13.0,64,0.00,,,0.00,Wunderground v.1.15,2013-01-20 10:50:00,
2013-01-20 05:55:00,44.1,32.7,29.84,WSW,240,14.0,16.0,64,0.00,,,0.00,Wunderground v.1.15,2013-01-20 10:55:00,
2013-01-20 06:00:00,44.0,33.0,29.84,SW,231,13.0,23.0,65,0.00,,,0.00,Wunderground v.1.15,2013-01-20 11:00:00,
2013-01-20 06:05:00,44.0,32.6,29.84,SW,229,13.0,23.0,64,0.00,,,0.00,Wunderground v.1.15,2013-01-20 11:05:00,
2013-01-20 06:10:00,44.1,32.7,29.84,SW,231,13.0,13.0,64,0.00,,,0.00,Wunderground v.1.15,2013-01-20 11:10:00,
2013-01-20 06:15:00,44.0,32.6,29.84,SW,215,12.0,22.0,64,0.00,,,0.00,Wunderground v.1.15,2013-01-20 11:15:00,
2013-01-20 06:25:00,43.9,32.9,29.84,SW,229,14.0,22.0,65,0.00,,,0.00,Wunderground v.1.15,2013-01-20 11:25:00,
2013-01-20 06:30:00,43.9,32.5,29.84,SW,227,13.0,22.0,64,0.00,,,0.00,Wunderground v.1.15,2013-01-20 11:30:00,
2013-01-20 06:35:00,43.7,32.7,29.84,SSW,213,13.0,22.0,65,0.00,,,0.00,Wunderground v.1.15,2013-01-20 11:35:00,
2013-01-20 06:40:00,43.7,32.7,29.84,SW,227,14.0,22.0,65,0.00,,,0.00,Wunderground v.1.15,2013-01-20 11:40:00,
2013-01-20 06:50:00,43.7,32.7,29.84,SW,228,13.0,24.0,65,0.00,,,0.00,Wunderground v.1.15,2013-01-20 11:50:00,
2013-01-20 06:55:00,43.7,32.7,29.84,SW,229,13.0,24.0,65,0.00,,,0.00,Wunderground v.1.15,2013-01-20 11:55:00,
2013-01-20 07:00:00,43.7,32.7,29.84,SW,224,14.0,14.0,65,0.00,,,0.00,Wunderground v.1.15,2013-01-20 12:00:00,
2013-01-20 07:05:00,43.7,32.3,29.84,SW,220,13.0,24.0,64,0.00,,,0.00,Wunderground v.1.15,2013-01-20 12:05:00,
2013-01-20 07:10:00,43.6,32.2,29.84,SW,215,12.0,24.0,64,0.00,,,0.00,Wunderground v.1.15,2013-01-20 12:10:00,
2013-01-20 07:20:00,43.6,32.6,29.84,SW,227,12.0,12.0,65,0.00,,,0.00,Wunderground v.1.15,2013-01-20 12:20:00,
2013-01-20 07:25:00,43.5,32.5,29.84,SW,217,12.0,22.0,65,0.00,,,0.00,Wunderground v.1.15,2013-01-20 12:25:00,
2013-01-20 07:30:00,43.5,32.5,29.84,SW,217,11.0,22.0,65,0.00,,,0.00,Wunderground v.1.15,2013-01-20 12:30:00,
2013-01-20 07:40:00,43.4,32.4,29.84,SW,216,12.0,22.0,65,0.00,,,0.00,Wunderground v.1.15,2013-01-20 12:40:00,
2013-01-20 07:45:00,43.4,32.4,29.84,SW,228,12.0,22.0,65,0.00,,,0.00,Wunderground v.1.15,2013-01-20 12:45:00,
2013-01-20 07:55:00,43.8,32.8,29.84,SW,224,12.0,12.0,65,0.00,,,0.00,Wunderground v.1.15,2013-01-20 12:55:00,
2013-01-20 08:00:00,43.9,32.9,29.84,SSW,211,12.0,12.0,65,0.00,,,0.00,Wunderground v.1.15,2013-01-20 13:00:00,
2013-01-20 08:05:00,44.0,33.0,29.84,SSW,196,11.0,19.0,65,0.00,,,0.00,Wunderground v.1.15,2013-01-20 13:05:00,
2013-01-20 08:10:00,44.2,33.2,29.84,SW,217,11.0,19.0,65,0.00,,,0.00,Wunderground v.1.15,2013-01-20 13:10:00,
2013-01-20 08:15:00,44.3,32.9,29.84,SW,226,11.0,21.0,64,0.00,,,0.00,Wunderground v.1.15,2013-01-20 13:15:00,
2013-01-20 08:25:00,44.5,32.7,29.84,SSW,198,13.0,21.0,63,0.00,,,0.00,Wunderground v.1.15,2013-01-20 13:25:00,
2013-01-20 08:30:00,44.6,32.8,29.85,SW,236,13.0,13.0,63,0.00,,,0.00,Wunderground v.1.15,2013-01-20 13:30:00,
2013-01-20 08:35:00,44.7,32.5,29.85,WSW,253,12.0,14.0,62,0.00,,,0.00,Wunderground v.1.15,2013-01-20 13:35:00,
2013-01-20 08:40:00,44.9,33.1,29.85,SW,221,12.0,12.0,63,0.00,,,0.00,Wunderground v.1.15,2013-01-20 13:40:00,
2013-01-20 08:45:00,45.0,32.8,29.85,SW,217,13.0,15.0,62,0.00,,,0.00,Wunderground v.1.15,2013-01-20 13:45:00,
2013-01-20 08:55:00,45.2,32.5,29.85,SW,224,12.0,23.0,61,0.00,,,0.00,Wunderground v.1.15,2013-01-20 13:55:00,
2013-01-20 09:00:00,45.3,33.0,29.84,SW,223,9.0,23.0,62,0.00,,,0.00,Wunderground v.1.15,2013-01-20 14:00:00,
2013-01-20 09:05:00,45.4,33.1,29.84,SW,221,11.0,23.0,62,0.00,,,0.00,Wunderground v.1.15,2013-01-20 14:05:00,
2013-01-20 09:15:00,44.5,31.1,29.84,SW,224,12.0,23.0,59,0.00,,,0.00,Wunderground v.1.15,2013-01-20 14:15:00,
2013-01-20 09:20:00,44.6,30.7,29.84,SW,230,12.0,22.0,58,0.00,,,0.00,Wunderground v.1.15,2013-01-20 14:20:00,
2013-01-20 09:25:00,44.8,30.5,29.84,SW,219,13.0,22.0,57,0.00,,,0.00,Wunderground v.1.15,2013-01-20 14:25:00,
2013-01-20 09:31:00,44.9,31.0,29.84,SW,215,13.0,13.0,58,0.00,,,0.00,Wunderground v.1.15,2013-01-20 14:31:00,
2013-01-20 09:40:00,45.4,31.5,29.84,SW,232,11.0,22.0,58,0.00,,,0.00,Wunderground v.1.15,2013-01-20 14:40:00,
2013-01-20 09:45:00,45.5,31.1,29.85,SW,225,12.0,22.0,57,0.00,,,0.00,Wunderground v.1.15,2013-01-20 14:45:00,
2013-01-20 09:50:00,45.7,31.3,29.85,SW,230,12.0,22.0,57,0.00,,,0.00,Wunderground v.1.15,2013-01-20 14:50:00,
2013-01-20 09:55:00,46.0,31.6,29.85,SW,220,13.0,13.0,57,0.00,,,0.00,Wunderground v.1.15,2013-01-20 14:55:00,
2013-01-20 10:05:00,46.2,31.4,29.85,SW,219,12.0,22.0,56,0.00,,,0.00,Wunderground v.1.15,2013-01-20 15:05:00,
2013-01-20 10:15:00,46.5,31.6,29.85,SW,236,12.0,22.0,56,0.00,,,0.00,Wunderground v.1.15,2013-01-20 15:15:00,
2013-01-20 10:20:00,46.8,31.9,29.85,SW,221,13.0,21.0,56,0.00,,,0.00,Wunderground v.1.15,2013-01-20 15:20:00,
2013-01-20 10:25:00,47.0,31.7,29.85,SW,229,12.0,21.0,55,0.00,,,0.00,Wunderground v.1.15,2013-01-20 15:25:00,
2013-01-20 10:30:00,47.3,31.9,29.85,SSW,213,11.0,21.0,55,0.00,,,0.00,Wunderground v.1.15,2013-01-20 15:30:00,
2013-01-20 10:40:00,47.7,31.4,29.85,SW,225,13.0,21.0,53,0.00,,,0.00,Wunderground v.1.15,2013-01-20 15:40:00,
2013-01-20 10:45:00,48.0,31.2,29.85,SW,229,14.0,21.0,52,0.00,,,0.00,Wunderground v.1.15,2013-01-20 15:45:00,
2013-01-20 10:50:00,48.3,32.4,29.85,SSW,213,13.0,13.0,54,0.00,,,0.00,Wunderground v.1.15,2013-01-20 15:50:00,
2013-01-20 10:55:00,48.5,32.6,29.85,SW,223,12.0,21.0,54,0.00,,,0.00,Wunderground v.1.15,2013-01-20 15:55:00,
2013-01-20 11:05:00,48.8,32.4,29.84,WSW,238,12.0,21.0,53,0.00,,,0.00,Wunderground v.1.15,2013-01-20 16:05:00,
2013-01-20 11:10:00,48.9,31.5,29.84,SW,236,13.0,13.0,51,0.00,,,0.00,Wunderground v.1.15,2013-01-20 16:10:00,
2013-01-20 11:15:00,49.2,32.3,29.84,SSW,210,12.0,19.0,52,0.00,,,0.00,Wunderground v.1.15,2013-01-20 16:15:00,
2013-01-20 11:25:00,49.9,32.5,29.84,WSW,244,11.0,19.0,51,0.00,,,0.00,Wunderground v.1.15,2013-01-20 16:25:00,
2013-01-20 11:30:00,50.2,31.8,29.83,WSW,238,10.0,19.0,49,0.00,,,0.00,Wunderground v.1.15,2013-01-20 16:30:00,
2013-01-20 11:35:00,50.7,32.2,29.83,SW,232,11.0,19.0,49,0.00,,,0.00,Wunderground v.1.15,2013-01-20 16:35:00,
2013-01-20 11:40:00,51.0,32.5,29.83,WSW,239,12.0,19.0,49,0.00,,,0.00,Wunderground v.1.15,2013-01-20 16:40:00,
2013-01-20 11:50:00,51.3,32.8,29.82,WSW,242,13.0,13.0,49,0.00,,,0.00,Wunderground v.1.15,2013-01-20 16:50:00,
2013-01-20 12:00:00,51.7,32.1,29.81,WSW,246,10.0,10.0,47,0.00,,,0.00,Wunderground v.1.15,2013-01-20 17:00:00,
2013-01-20 12:06:00,51.9,32.3,29.81,SW,223,11.0,17.0,47,0.00,,,0.00,Wunderground v.1.15,2013-01-20 17:06:00,
2013-01-20 12:15:00,52.3,32.6,29.80,SW,227,12.0,21.0,47,0.00,,,0.00,Wunderground v.1.15,2013-01-20 17:15:00,
2013-01-20 12:20:00,52.6,32.9,29.80,SW,221,10.0,10.0,47,0.00,,,0.00,Wunderground v.1.15,2013-01-20 17:20:00,
2013-01-20 12:30:00,53.2,32.4,29.79,SW,228,13.0,21.0,45,0.00,,,0.00,Wunderground v.1.15,2013-01-20 17:30:00,
2013-01-20 12:35:00,53.3,34.1,29.79,SW,234,14.0,21.0,48,0.00,,,0.00,Wunderground v.1.15,2013-01-20 17:35:00,
2013-01-20 12:40:00,53.5,33.2,29.79,SW,233,13.0,13.0,46,0.00,,,0.00,Wunderground v.1.15,2013-01-20 17:40:00,
2013-01-20 12:50:00,53.9,32.5,29.79,SW,234,11.0,22.0,44,0.00,,,0.00,Wunderground v.1.15,2013-01-20 17:50:00,
2013-01-20 12:55:00,53.9,33.0,29.79,SW,236,13.0,22.0,45,0.00,,,0.00,Wunderground v.1.15,2013-01-20 17:55:00,
2013-01-20 13:00:00,54.2,33.3,29.79,SW,228,12.0,22.0,45,0.00,,,0.00,Wunderground v.1.15,2013-01-20 18:00:00,
2013-01-20 13:10:00,54.5,33.0,29.79,WSW,239,10.0,22.0,44,0.00,,,0.00,Wunderground v.1.15,2013-01-20 18:10:00,
2013-01-20 13:15:00,54.5,32.4,29.79,SW,236,11.0,22.0,43,0.00,,,0.00,Wunderground v.1.15,2013-01-20 18:15:00,
2013-01-20 13:20:00,54.4,33.5,29.79,West,277,11.0,22.0,45,0.00,,,0.00,Wunderground v.1.15,2013-01-20 18:20:00,
2013-01-20 13:25:00,54.5,34.1,29.79,West,260,11.0,22.0,46,0.00,,,0.00,Wunderground v.1.15,2013-01-20 18:25:00,
2013-01-20 13:31:00,54.5,33.6,29.79,WSW,247,10.0,22.0,45,0.00,,,0.00,Wunderground v.1.15,2013-01-20 18:31:00,
2013-01-20 13:40:00,54.7,33.8,29.79,WSW,242,8.0,22.0,45,0.00,,,0.00,Wunderground v.1.15,2013-01-20 18:40:00,
2013-01-20 13:45:00,54.8,33.8,29.79,West,263,8.0,8.0,45,0.00,,,0.00,Wunderground v.1.15,2013-01-20 18:45:00,
2013-01-20 13:51:00,54.8,33.8,29.79,WSW,250,7.0,18.0,45,0.00,,,0.00,Wunderground v.1.15,2013-01-20 18:51:00,
2013-01-20 14:00:00,54.8,34.4,29.79,WSW,244,6.0,6.0,46,0.00,,,0.00,Wunderground v.1.15,2013-01-20 19:00:00,
2013-01-20 14:05:00,55.0,35.7,29.79,WSW,239,6.0,18.0,48,0.00,,,0.00,Wunderground v.1.15,2013-01-20 19:05:00,
2013-01-20 14:10:00,54.8,34.9,29.79,WSW,249,5.0,18.0,47,0.00,,,0.00,Wunderground v.1.15,2013-01-20 19:10:00,
2013-01-20 14:20:00,56.0,32.0,29.80,West,270,7.0,7.0,40,0.00,,,0.00,Wunderground v.1.15,2013-01-20 19:20:00,
2013-01-20 14:25:00,56.5,31.8,29.80,West,271,8.0,8.0,39,0.00,,,0.00,Wunderground v.1.15,2013-01-20 19:25:00,
2013-01-20 14:30:00,56.6,31.9,29.80,WSW,238,6.0,6.0,39,0.00,,,0.00,Wunderground v.1.15,2013-01-20 19:30:00,
2013-01-20 14:35:00,56.6,31.9,29.80,WSW,244,6.0,7.0,39,0.00,,,0.00,Wunderground v.1.15,2013-01-20 19:35:00,
2013-01-20 14:45:00,56.6,32.5,29.80,West,259,7.0,15.0,40,0.00,,,0.00,Wunderground v.1.15,2013-01-20 19:45:00,
2013-01-20 14:51:00,56.6,33.8,29.80,SW,229,6.0,15.0,42,0.00,,,0.00,Wunderground v.1.15,2013-01-20 19:51:00,
2013-01-20 15:00:00,56.5,32.4,29.80,WSW,240,6.0,6.0,40,0.00,,,0.00,Wunderground v.1.15,2013-01-20 20:00:00,
2013-01-20 15:10:00,56.6,34.3,29.80,WSW,240,5.0,15.0,43,0.00,,,0.00,Wunderground v.1.15,2013-01-20 20:10:00,
2013-01-20 15:15:00,56.7,33.2,29.81,WSW,255,5.0,15.0,41,0.00,,,0.00,Wunderground v.1.15,2013-01-20 20:15:00,
2013-01-20 15:20:00,56.9,33.4,29.81,WSW,241,6.0,6.0,41,0.00,,,0.00,Wunderground v.1.15,2013-01-20 20:20:00,
2013-01-20 15:25:00,57.2,32.4,29.81,West,273,5.0,10.0,39,0.00,,,0.00,Wunderground v.1.15,2013-01-20 20:25:00,
2013-01-20 15:30:00,57.6,33.4,29.81,WNW,286,4.0,4.0,40,0.00,,,0.00,Wunderground v.1.15,2013-01-20 20:30:00,
2013-01-20 15:40:00,58.1,29.1,29.81,WNW,302,6.0,10.0,33,0.00,,,0.00,Wunderground v.1.15,2013-01-20 20:40:00,
2013-01-20 15:45:00,58.1,29.8,29.82,NW,324,6.0,14.0,34,0.00,,,0.00,Wunderground v.1.15,2013-01-20 20:45:00,
2013-01-20 15:55:00,57.3,27.7,29.82,NW,325,8.0,15.0,32,0.00,,,0.00,Wunderground v.1.15,2013-01-20 20:55:00,
2013-01-20 16:05:00,56.7,27.9,29.83,WNW,298,6.0,15.0,33,0.00,,,0.00,Wunderground v.1.15,2013-01-20 21:05:00,
2013-01-20 16:10:00,56.5,26.2,29.83,NW,306,6.0,6.0,31,0.00,,,0.00,Wunderground v.1.15,2013-01-20 21:10:00,
2013-01-20 16:16:00,56.2,25.9,29.83,WNW,300,6.0,17.0,31,0.00,,,0.00,Wunderground v.1.15,2013-01-20 21:16:00,
2013-01-20 16:30:00,55.6,24.6,29.84,NW,304,8.0,17.0,30,0.00,,,0.00,Wunderground v.1.15,2013-01-20 21:30:00,
2013-01-20 16:35:00,55.3,24.4,29.84,WNW,292,8.0,17.0,30,0.00,,,0.00,Wunderground v.1.15,2013-01-20 21:35:00,
2013-01-20 16:45:00,55.0,24.9,29.85,NW,316,6.0,19.0,31,0.00,,,0.00,Wunderground v.1.15,2013-01-20 21:45:00,
2013-01-20 16:55:00,53.9,24.7,29.85,NW,317,6.0,19.0,32,0.00,,,0.00,Wunderground v.1.15,2013-01-20 21:55:00,
2013-01-20 17:00:00,53.5,25.1,29.85,NW,309,6.0,6.0,33,0.00,,,0.00,Wunderground v.1.15,2013-01-20 22:00:00,
2013-01-20 17:05:00,53.1,24.7,29.85,NNW,338,7.0,7.0,33,0.00,,,0.00,Wunderground v.1.15,2013-01-20 22:05:00,
2013-01-20 17:10:00,52.8,24.5,29.85,NNW,340,7.0,19.0,33,0.00,,,0.00,Wunderground v.1.15,2013-01-20 22:10:00,
2013-01-20 17:15:00,52.5,22.7,29.87,NW,306,8.0,19.0,31,0.00,,,0.00,Wunderground v.1.15,2013-01-20 22:15:00,
2013-01-20 17:26:00,52.2,22.4,29.87,NW,325,9.0,15.0,31,0.00,,,0.00,Wunderground v.1.15,2013-01-20 22:26:00,
2013-01-20 17:35:00,51.9,19.8,29.88,NW,305,7.0,15.0,28,0.00,,,0.00,Wunderground v.1.15,2013-01-20 22:35:00,
2013-01-20 17:45:00,51.6,21.9,29.90,WNW,292,6.0,15.0,31,0.00,,,0.00,Wunderground v.1.15,2013-01-20 22:45:00,
2013-01-20 17:51:00,51.1,20.7,29.90,NW,309,5.0,15.0,30,0.00,,,0.00,Wunderground v.1.15,2013-01-20 22:51:00,
2013-01-20 18:00:00,50.8,18.0,29.90,WNW,288,6.0,6.0,27,0.00,,,0.00,Wunderground v.1.15,2013-01-20 23:00:00,
2013-01-20 18:05:00,50.7,18.7,29.90,NW,313,6.0,15.0,28,0.00,,,0.00,Wunderground v.1.15,2013-01-20 23:05:00,
2013-01-20 18:15:00,50.1,18.2,29.91,North,5,9.0,20.0,28,0.00,,,0.00,Wunderground v.1.15,2013-01-20 23:15:00,
2013-01-20 18:20:00,49.9,18.0,29.91,North,350,8.0,8.0,28,0.00,,,0.00,Wunderground v.1.15,2013-01-20 23:20:00,
2013-01-20 18:25:00,49.6,19.4,29.91,NNW,334,8.0,20.0,30,0.00,,,0.00,Wunderground v.1.15,2013-01-20 23:25:00,
2013-01-20 18:35:00,48.9,18.0,29.92,NNW,344,7.0,8.0,29,0.00,,,0.00,Wunderground v.1.15,2013-01-20 23:35:00,
2013-01-20 18:40:00,48.8,17.1,29.92,NW,321,7.0,7.0,28,0.00,,,0.00,Wunderground v.1.15,2013-01-20 23:40:00,
2013-01-20 18:45:00,48.5,16.0,29.93,NNW,332,6.0,23.0,27,0.00,,,0.00,Wunderground v.1.15,2013-01-20 23:45:00,
2013-01-20 18:50:00,48.3,16.7,29.93,NNW,331,7.0,23.0,28,0.00,,,0.00,Wunderground v.1.15,2013-01-20 23:50:00,
2013-01-20 19:00:00,47.9,16.3,29.94,NW,324,8.0,23.0,28,0.00,,,0.00,Wunderground v.1.15,2013-01-21 00:00:00,
2013-01-20 19:06:00,47.7,16.1,29.94,NW,324,9.0,23.0,28,0.00,,,0.00,Wunderground v.1.15,2013-01-21 00:06:00,
2013-01-20 19:15:00,47.6,16.1,29.94,NNW,331,8.0,18.0,28,0.00,,,0.00,Wunderground v.1.15,2013-01-21 00:15:00,
2013-01-20 19:20:00,47.1,15.6,29.94,NW,323,7.0,7.0,28,0.00,,,0.00,Wunderground v.1.15,2013-01-21 00:20:00,
2013-01-20 19:30:00,46.4,15.8,29.95,NNW,348,7.0,18.0,29,0.00,,,0.00,Wunderground v.1.15,2013-01-21 00:30:00,
2013-01-20 19:35:00,46.2,15.6,29.95,NNW,327,8.0,18.0,29,0.00,,,0.00,Wunderground v.1.15,2013-01-21 00:35:00,
2013-01-20 19:40:00,46.2,15.6,29.95,NNW,328,8.0,8.0,29,0.00,,,0.00,Wunderground v.1.15,2013-01-21 00:40:00,
2013-01-20 19:45:00,46.2,14.8,29.96,NNW,333,8.0,17.0,28,0.00,,,0.00,Wunderground v.1.15,2013-01-21 00:45:00,
2013-01-20 19:55:00,45.8,14.5,29.96,NW,320,8.0,17.0,28,0.00,,,0.00,Wunderground v.1.15,2013-01-21 00:55:00,
2013-01-20 20:00:00,45.7,13.6,29.97,North,9,8.0,17.0,27,0.00,,,0.00,Wunderground v.1.15,2013-01-21 01:00:00,
2013-01-20 20:05:00,45.5,14.2,29.97,NW,311,8.0,17.0,28,0.00,,,0.00,Wunderground v.1.15,2013-01-21 01:05:00,
2013-01-20 20:16:00,45.4,13.3,29.97,NW,323,7.0,16.0,27,0.00,,,0.00,Wunderground v.1.15,2013-01-21 01:16:00,
2013-01-20 20:25:00,44.9,13.7,29.97,North,350,6.0,8.0,28,0.00,,,0.00,Wunderground v.1.15,2013-01-21 01:25:00,
2013-01-20 20:30:00,44.8,14.4,29.98,North,360,6.0,16.0,29,0.00,,,0.00,Wunderground v.1.15,2013-01-21 01:30:00,
2013-01-20 20:40:00,44.2,18.2,29.98,North,355,7.0,7.0,35,0.00,,,0.00,Wunderground v.1.15,2013-01-21 01:40:00,
2013-01-20 20:46:00,43.8,17.9,29.99,NNW,338,6.0,17.0,35,0.00,,,0.00,Wunderground v.1.15,2013-01-21 01:46:00,
2013-01-20 20:55:00,43.2,19.3,29.99,NNW,342,6.0,17.0,38,0.00,,,0.00,Wunderground v.1.15,2013-01-21 01:55:00,
2013-01-20 21:01:00,42.9,17.1,29.99,NNW,348,7.0,17.0,35,0.00,,,0.00,Wunderground v.1.15,2013-01-21 02:01:00,
2013-01-20 21:10:00,42.5,16.7,29.99,NNW,342,4.0,17.0,35,0.00,,,0.00,Wunderground v.1.15,2013-01-21 02:10:00,
2013-01-20 21:21:00,42.1,17.7,30.00,NW,311,4.0,12.0,37,0.00,,,0.00,Wunderground v.1.15,2013-01-21 02:21:00,
2013-01-20 21:30:00,41.6,17.2,30.00,NNW,333,4.0,12.0,37,0.00,,,0.00,Wunderground v.1.15,2013-01-21 02:30:00,
2013-01-20 21:35:00,41.5,16.5,30.00,NNW,339,5.0,12.0,36,0.00,,,0.00,Wunderground v.1.15,2013-01-21 02:35:00,
2013-01-20 21:45:00,41.2,15.6,30.01,NNW,347,6.0,12.0,35,0.00,,,0.00,Wunderground v.1.15,2013-01-21 02:45:00,
2013-01-20 21:50:00,41.1,15.5,30.01,North,349,5.0,12.0,35,0.00,,,0.00,Wunderground v.1.15,2013-01-21 02:50:00,
2013-01-20 21:55:00,40.9,16.0,30.01,NNW,338,5.0,5.0,36,0.00,,,0.00,Wunderground v.1.15,2013-01-21 02:55:00,
2013-01-20 22:00:00,40.8,15.9,30.02,NNW,333,5.0,12.0,36,0.00,,,0.00,Wunderground v.1.15,2013-01-21 03:00:00,
2013-01-20 22:10:00,40.5,16.2,30.02,NNW,343,5.0,12.0,37,0.00,,,0.00,Wunderground v.1.15,2013-01-21 03:10:00,
2013-01-20 22:15:00,40.3,15.4,30.02,North,350,7.0,12.0,36,0.00,,,0.00,Wunderground v.1.15,2013-01-21 03:15:00,
2013-01-20 22:20:00,40.3,14.8,30.02,North,355,8.0,8.0,35,0.00,,,0.00,Wunderground v.1.15,2013-01-21 03:20:00,
2013-01-20 22:25:00,40.5,14.3,30.02,NNW,347,8.0,12.0,34,0.00,,,0.00,Wunderground v.1.15,2013-01-21 03:25:00,
2013-01-20 22:35:00,40.5,15.0,30.02,NNW,344,7.0,12.0,35,0.00,,,0.00,Wunderground v.1.15,2013-01-21 03:35:00,
2013-01-20 22:40:00,40.3,15.4,30.02,North,349,6.0,12.0,36,0.00,,,0.00,Wunderground v.1.15,2013-01-21 03:40:00,
2013-01-20 22:45:00,40.2,16.6,30.02,North,360,6.0,14.0,38,0.00,,,0.00,Wunderground v.1.15,2013-01-21 03:45:00,
2013-01-20 22:55:00,40.1,17.1,30.02,North,355,9.0,9.0,39,0.00,,,0.00,Wunderground v.1.15,2013-01-21 03:55:00,
2013-01-20 23:00:00,39.9,16.3,30.02,North,360,9.0,9.0,38,0.00,,,0.00,Wunderground v.1.15,2013-01-21 04:00:00,
2013-01-20 23:05:00,39.9,15.7,30.02,North,360,10.0,10.0,37,0.00,,,0.00,Wunderground v.1.15,2013-01-21 04:05:00,
2013-01-20 23:10:00,40.1,15.2,30.02,NNW,339,9.0,14.0,36,0.00,,,0.00,Wunderground v.1.15,2013-01-21 04:10:00,
2013-01-20 23:20:00,40.1,16.5,30.02,NNW,344,9.0,18.0,38,0.00,,,0.00,Wunderground v.1.15,2013-01-21 04:20:00,
2013-01-20 23:25:00,40.1,18.8,30.02,NNW,334,10.0,18.0,42,0.00,,,0.00,Wunderground v.1.15,2013-01-21 04:25:00,
2013-01-20 23:30:00,40.1,18.8,30.02,NNW,331,10.0,10.0,42,0.00,,,0.00,Wunderground v.1.15,2013-01-21 04:30:00,
2013-01-20 23:40:00,40.1,19.4,30.02,North,355,10.0,18.0,43,0.00,,,0.00,Wunderground v.1.15,2013-01-21 04:40:00,
2013-01-20 23:45:00,39.9,19.2,30.02,North,9,10.0,18.0,43,0.00,,,0.00,Wunderground v.1.15,2013-01-21 04:45:00,
2013-01-20 23:55:00,39.9,20.3,30.02,North,355,7.0,17.0,45,0.00,,,0.00,Wunderground v.1.15,2013-01-21 04:55:00,